,,Stat6,,Stat2,,Stat8,,Stat9,,Stat10,,Wind1,,Wind1,
time,status,PA1M_AVG,status,PR1M_SUM,status,RH1M_AVG,status,SR1M_AVG,status,TA1M_AVG,status,W1dAve1m,status,W1sAve1m,
2003-10-03, 00:00:00,VALID,917.615,VALID,0,VALID,98.0051,VALID,-0.101885,VALID,20.4471,VALID,16,VALID,0.0280878,
2003-10-03, 00:01:00,VALID,917.597,VALID,0,VALID,97.9962,VALID,-0.0679233,VALID,20.4468,VALID,5,VALID,0.291853,
2003-10-03, 00:02:00,VALID,917.59,VALID,0,VALID,98.014,VALID,-0.0679233,VALID,20.4637,VALID,358,VALID,0,
2003-10-03, 00:03:00,VALID,917.581,VALID,0,VALID,98.0318,VALID,-0.0679233,VALID,20.4796,VALID,358,VALID,0.162574,
2003-10-03, 00:04:00,VALID,917.576,VALID,0,VALID,98.0344,VALID,-0.0849042,VALID,20.4826,VALID,358,VALID,0.229288,
2003-10-03, 00:05:00,VALID,917.585,VALID,0,VALID,98.028,VALID,-0.0339617,VALID,20.4853,VALID,15,VALID,0.947674,
2003-10-03, 00:06:00,VALID,917.597,VALID,0,VALID,98.0941,VALID,-0.0849042,VALID,20.5052,VALID,21,VALID,0.838605,
2003-10-03, 00:07:00,VALID,917.606,VALID,0,VALID,98.0598,VALID,-0.101885,VALID,20.5249,VALID,14,VALID,0.897017,
2003-10-03, 00:08:00,VALID,917.613,VALID,0,VALID,98.0165,VALID,-0.101885,VALID,20.5146,VALID,19,VALID,0.884859,
2003-10-03, 00:09:00,VALID,917.626,VALID,0,VALID,97.9898,VALID,-0.0679233,VALID,20.5345,VALID,16,VALID,0.720982,
2003-10-03, 00:10:00,VALID,917.615,VALID,0,VALID,97.9937,VALID,-0.0849042,VALID,20.5152,VALID,8,VALID,0.488814,
2003-10-03, 00:11:00,VALID,917.589,VALID,0,VALID,98.0509,VALID,-0.0679233,VALID,20.5079,VALID,1,VALID,0.29851,
2003-10-03, 00:12:00,VALID,917.576,VALID,0,VALID,98.0013,VALID,-0.101885,VALID,20.4985,VALID,5,VALID,0.0790334,
2003-10-03, 00:13:00,VALID,917.548,VALID,0,VALID,98.0789,VALID,-0.0679233,VALID,20.502,VALID,5,VALID,0,
2003-10-03, 00:14:00,VALID,917.528,VALID,0,VALID,98.07,VALID,-0.0849042,VALID,20.4985,VALID,5,VALID,0.0275213,
2003-10-03, 00:15:00,VALID,917.524,VALID,0,VALID,98.0865,VALID,-0.0849042,VALID,20.4955,VALID,5,VALID,0.00920139,
2003-10-03, 00:16:00,VALID,917.503,VALID,0,VALID,98.089,VALID,-0.0849042,VALID,20.4896,VALID,284,VALID,0.35,
2003-10-03, 00:17:00,VALID,917.505,VALID,0,VALID,98.1717,VALID,-0.0679233,VALID,20.4729,VALID,342,VALID,0.151867,
2003-10-03, 00:18:00,VALID,917.5,VALID,0,VALID,98.2556,VALID,-0.0849042,VALID,20.4697,VALID,348,VALID,0.316778,
2003-10-03, 00:19:00,VALID,917.499,VALID,0,VALID,98.3052,VALID,-0.101885,VALID,20.4732,VALID,1,VALID,0.373285,
2003-10-03, 00:20:00,VALID,917.49,VALID,0,VALID,98.3955,VALID,-0.0849042,VALID,20.4732,VALID,13,VALID,0.139027,
2003-10-03, 00:21:00,VALID,917.484,VALID,0,VALID,98.4082,VALID,-0.0509425,VALID,20.4955,VALID,13,VALID,0.101563,
2003-10-03, 00:22:00,VALID,917.455,VALID,0,VALID,98.3459,VALID,-0.0849042,VALID,20.5017,VALID,351,VALID,0.58327,
2003-10-03, 00:23:00,VALID,917.426,VALID,0,VALID,98.2098,VALID,-0.0849042,VALID,20.4694,VALID,331,VALID,0.569196,
2003-10-03, 00:24:00,VALID,917.4,VALID,0,VALID,98.2175,VALID,-0.0339617,VALID,20.4597,VALID,334,VALID,0.249428,
2003-10-03, 00:25:00,VALID,917.375,VALID,0,VALID,98.2531,VALID,-0.0679233,VALID,20.4632,VALID,334,VALID,0.107701,
2003-10-03, 00:26:00,VALID,917.34,VALID,0,VALID,98.3065,VALID,-0.0679233,VALID,20.4533,VALID,334,VALID,0,
2003-10-03, 00:27:00,VALID,917.319,VALID,0,VALID,98.4298,VALID,-0.0339617,VALID,20.4697,VALID,334,VALID,0.00106534,
2003-10-03, 00:28:00,VALID,917.317,VALID,0,VALID,98.4018,VALID,-0.0169808,VALID,20.4761,VALID,334,VALID,0.186228,
2003-10-03, 00:29:00,VALID,917.321,VALID,0,VALID,98.4018,VALID,-0.0509425,VALID,20.4856,VALID,3,VALID,0.477896,
2003-10-03, 00:30:00,VALID,917.333,VALID,0,VALID,98.4616,VALID,-0.0509425,VALID,20.5184,VALID,11,VALID,0.475291,
2003-10-03, 00:31:00,VALID,917.331,VALID,0,VALID,98.426,VALID,-0.0169808,VALID,20.5082,VALID,13,VALID,0.596591,
2003-10-03, 00:32:00,VALID,917.328,VALID,0,VALID,98.3713,VALID,-0.0849042,VALID,20.5179,VALID,16,VALID,0.440952,
2003-10-03, 00:33:00,VALID,917.343,VALID,0,VALID,98.3383,VALID,-0.0339617,VALID,20.5241,VALID,16,VALID,0.226926,
2003-10-03, 00:34:00,VALID,917.331,VALID,0,VALID,98.3446,VALID,-0.0849042,VALID,20.5435,VALID,16,VALID,0.0342262,
2003-10-03, 00:35:00,VALID,917.32,VALID,0,VALID,98.2938,VALID,-0.0509425,VALID,20.5698,VALID,15,VALID,0.0186738,
2003-10-03, 00:36:00,VALID,917.321,VALID,0,VALID,98.2302,VALID,-0.0849042,VALID,20.5763,VALID,14,VALID,0.126488,
2003-10-03, 00:37:00,VALID,917.303,VALID,0,VALID,98.1005,VALID,-0.0679233,VALID,20.5591,VALID,14,VALID,0,
2003-10-03, 00:38:00,VALID,917.276,VALID,0,VALID,98.0369,VALID,-0.0339617,VALID,20.5693,VALID,14,VALID,0.115552,
2003-10-03, 00:39:00,VALID,917.265,VALID,0,VALID,98.0407,VALID,-0.0169808,VALID,20.5822,VALID,14,VALID,0.0546875,
2003-10-03, 00:40:00,VALID,917.25,VALID,0,VALID,98.0712,VALID,-0.0169808,VALID,20.6019,VALID,14,VALID,0.0355283,
2003-10-03, 00:41:00,VALID,917.239,VALID,0,VALID,97.9568,VALID,-0.0339617,VALID,20.6016,VALID,14,VALID,0.0327381,
2003-10-03, 00:42:00,VALID,917.221,VALID,0,VALID,97.8703,VALID,-0.0339617,VALID,20.5927,VALID,14,VALID,0,
2003-10-03, 00:43:00,VALID,917.207,VALID,0,VALID,97.8169,VALID,-0.0849042,VALID,20.5795,VALID,14,VALID,0.0352471,
2003-10-03, 00:44:00,VALID,917.181,VALID,0,VALID,97.7292,VALID,-0.0509425,VALID,20.5499,VALID,13,VALID,0,
2003-10-03, 00:45:00,VALID,917.135,VALID,0,VALID,97.7355,VALID,-0.0679233,VALID,20.5537,VALID,5,VALID,0.110069,
2003-10-03, 00:46:00,VALID,917.098,VALID,0,VALID,97.7597,VALID,-0.0509425,VALID,20.5276,VALID,258,VALID,0.332648,
2003-10-03, 00:47:00,VALID,917.067,VALID,0,VALID,97.8334,VALID,-0.0509425,VALID,20.4918,VALID,245,VALID,0.463778,
2003-10-03, 00:48:00,VALID,917.025,VALID,0,VALID,97.9326,VALID,-0.0509425,VALID,20.4794,VALID,239,VALID,0.479759,
2003-10-03, 00:49:00,VALID,917.01,VALID,0,VALID,98.0445,VALID,-0.0679233,VALID,20.4466,VALID,238,VALID,0.440104,
2003-10-03, 00:50:00,VALID,916.982,VALID,0,VALID,98.1412,VALID,-0.0169808,VALID,20.4304,VALID,238,VALID,0.421131,
2003-10-03, 00:51:00,VALID,916.978,VALID,0,VALID,98.2632,VALID,-0.0339617,VALID,20.4053,VALID,240,VALID,0.500545,
2003-10-03, 00:52:00,VALID,916.973,VALID,0,VALID,98.337,VALID,-0.0849042,VALID,20.382,VALID,236,VALID,0.479288,
2003-10-03, 00:53:00,VALID,916.959,VALID,0,VALID,98.4222,VALID,-0.0509425,VALID,20.376,VALID,235,VALID,0.226918,
2003-10-03, 00:54:00,VALID,916.966,VALID,0,VALID,98.5315,VALID,-0.0849042,VALID,20.3698,VALID,235,VALID,0.0512355,
2003-10-03, 00:55:00,VALID,916.958,VALID,0,VALID,98.5672,VALID,-0.0679233,VALID,20.3599,VALID,235,VALID,0.129092,
2003-10-03, 00:56:00,VALID,916.968,VALID,0,VALID,98.6002,VALID,-0.0849042,VALID,20.3402,VALID,235,VALID,0,
2003-10-03, 00:57:00,VALID,916.96,VALID,0,VALID,98.7172,VALID,-0.0679233,VALID,20.3367,VALID,235,VALID,0.0129616,
2003-10-03, 00:58:00,VALID,916.947,VALID,0,VALID,98.7579,VALID,-0.0679233,VALID,20.3668,VALID,263,VALID,0.372275,
2003-10-03, 00:59:00,VALID,916.92,VALID,0,VALID,98.763,VALID,-0.0849042,VALID,20.3797,VALID,25,VALID,0.795945,
2003-10-03, 01:00:00,VALID,916.951,VALID,0,VALID,98.8113,VALID,-0.0849042,VALID,20.4021,VALID,22,VALID,0.785065,
2003-10-03, 01:01:00,VALID,916.896,VALID,0,VALID,98.7528,VALID,-0.0679233,VALID,20.4053,VALID,36,VALID,0.740885,
2003-10-03, 01:02:00,VALID,916.883,VALID,0,VALID,98.6803,VALID,-0.0849042,VALID,20.411,VALID,43,VALID,0.406059,
2003-10-03, 01:03:00,VALID,916.874,VALID,0,VALID,98.604,VALID,-0.0339617,VALID,20.414,VALID,43,VALID,0.37862,
2003-10-03, 01:04:00,VALID,916.855,VALID,0,VALID,98.5659,VALID,0,VALID,20.41,VALID,48,VALID,0.373698,
2003-10-03, 01:05:00,VALID,916.847,VALID,0,VALID,98.4769,VALID,0.0169808,VALID,20.407,VALID,64,VALID,0.424964,
2003-10-03, 01:06:00,VALID,916.832,VALID,0,VALID,98.4718,VALID,0.0169808,VALID,20.3904,VALID,64,VALID,0.327446,
2003-10-03, 01:07:00,VALID,916.812,VALID,0,VALID,98.4832,VALID,0.0339617,VALID,20.3884,VALID,66,VALID,0.401456,
2003-10-03, 01:08:00,VALID,916.805,VALID,0,VALID,98.585,VALID,0.0339617,VALID,20.3717,VALID,66,VALID,0.198611,
2003-10-03, 01:09:00,VALID,916.78,VALID,0,VALID,98.6155,VALID,0,VALID,20.3717,VALID,59,VALID,0.319425,
2003-10-03, 01:10:00,VALID,916.769,VALID,0,VALID,98.66,VALID,0.0169808,VALID,20.3615,VALID,49,VALID,0.159299,
2003-10-03, 01:11:00,VALID,916.759,VALID,0,VALID,98.721,VALID,0.0509425,VALID,20.3782,VALID,49,VALID,0.164063,
2003-10-03, 01:12:00,VALID,916.747,VALID,0,VALID,98.7821,VALID,0.0509425,VALID,20.3844,VALID,49,VALID,0,
2003-10-03, 01:13:00,VALID,916.733,VALID,0,VALID,98.7859,VALID,0.0679233,VALID,20.3906,VALID,49,VALID,0,
2003-10-03, 01:14:00,VALID,916.729,VALID,0,VALID,98.7973,VALID,0.0339617,VALID,20.41,VALID,49,VALID,0.0331101,
2003-10-03, 01:15:00,VALID,916.733,VALID,0,VALID,98.7681,VALID,0.0169808,VALID,20.4165,VALID,49,VALID,0.306362,
2003-10-03, 01:16:00,VALID,916.734,VALID,0,VALID,98.7477,VALID,0.0169808,VALID,20.4132,VALID,36,VALID,0.396949,
2003-10-03, 01:17:00,VALID,916.765,VALID,0,VALID,98.7312,VALID,0.0169808,VALID,20.4391,VALID,13,VALID,0.766197,
2003-10-03, 01:18:00,VALID,916.769,VALID,0,VALID,98.6193,VALID,-0.0169808,VALID,20.4301,VALID,22,VALID,0.936928,
2003-10-03, 01:19:00,VALID,916.789,VALID,0,VALID,98.543,VALID,-0.0679233,VALID,20.4242,VALID,24,VALID,0.674665,
2003-10-03, 01:20:00,VALID,916.781,VALID,0,VALID,98.5315,VALID,-0.0339617,VALID,20.421,VALID,11,VALID,0.539253,
2003-10-03, 01:21:00,VALID,916.781,VALID,0,VALID,98.5468,VALID,-0.0339617,VALID,20.418,VALID,7,VALID,0.434956,
2003-10-03, 01:22:00,VALID,916.771,VALID,0,VALID,98.515,VALID,-0.0849042,VALID,20.4048,VALID,357,VALID,0.416243,
2003-10-03, 01:23:00,VALID,916.775,VALID,0,VALID,98.4921,VALID,-0.0679233,VALID,20.3954,VALID,350,VALID,0.315696,
2003-10-03, 01:24:00,VALID,916.762,VALID,0,VALID,98.5506,VALID,-0.101885,VALID,20.3951,VALID,350,VALID,0.0487805,
2003-10-03, 01:25:00,VALID,916.771,VALID,0,VALID,98.6206,VALID,-0.0849042,VALID,20.3916,VALID,350,VALID,0.00090843,
2003-10-03, 01:26:00,VALID,916.771,VALID,0,VALID,98.6129,VALID,-0.0509425,VALID,20.4083,VALID,350,VALID,0.00171494,
2003-10-03, 01:27:00,VALID,916.795,VALID,0,VALID,98.6473,VALID,-0.0849042,VALID,20.3949,VALID,350,VALID,0.0358232,
2003-10-03, 01:28:00,VALID,916.81,VALID,0,VALID,98.7159,VALID,-0.0679233,VALID,20.4048,VALID,350,VALID,0.241667,
2003-10-03, 01:29:00,VALID,916.81,VALID,0,VALID,98.7287,VALID,-0.0679233,VALID,20.4239,VALID,350,VALID,0.105646,
2003-10-03, 01:30:00,VALID,916.821,VALID,0,VALID,98.6918,VALID,-0.0679233,VALID,20.4307,VALID,359,VALID,0.276563,
2003-10-03, 01:31:00,VALID,916.815,VALID,0,VALID,98.6892,VALID,-0.0679233,VALID,20.4274,VALID,22,VALID,0.933222,
2003-10-03, 01:32:00,VALID,916.818,VALID,0,VALID,98.6536,VALID,-0.0679233,VALID,20.4175,VALID,29,VALID,0.907812,
2003-10-03, 01:33:00,VALID,916.801,VALID,0,VALID,98.7236,VALID,-0.0849042,VALID,20.4312,VALID,28,VALID,0.453906,
2003-10-03, 01:34:00,VALID,916.797,VALID,0,VALID,98.7795,VALID,-0.0849042,VALID,20.45,VALID,310,VALID,0.210088,
2003-10-03, 01:35:00,VALID,916.779,VALID,0,VALID,98.6791,VALID,-0.101885,VALID,20.4406,VALID,240,VALID,0.538504,
2003-10-03, 01:36:00,VALID,916.747,VALID,0,VALID,98.6651,VALID,-0.101885,VALID,20.415,VALID,240,VALID,0.445313,
2003-10-03, 01:37:00,VALID,916.734,VALID,0,VALID,98.7185,VALID,-0.0679233,VALID,20.3956,VALID,240,VALID,0.48266,
2003-10-03, 01:38:00,VALID,916.723,VALID,0,VALID,98.777,VALID,-0.101885,VALID,20.3633,VALID,230,VALID,0.637835,
2003-10-03, 01:39:00,VALID,916.713,VALID,0,VALID,98.852,VALID,-0.0849042,VALID,20.3469,VALID,229,VALID,0.674055,
2003-10-03, 01:40:00,VALID,916.705,VALID,0,VALID,98.9283,VALID,-0.0849042,VALID,20.338,VALID,237,VALID,0.660511,
2003-10-03, 01:41:00,VALID,916.708,VALID,0,VALID,99.0262,VALID,-0.118866,VALID,20.331,VALID,235,VALID,0.234756,
2003-10-03, 01:42:00,VALID,916.708,VALID,0,VALID,99.1203,VALID,-0.0849042,VALID,20.3345,VALID,235,VALID,0,
2003-10-03, 01:43:00,VALID,916.699,VALID,0,VALID,99.1852,VALID,-0.0679233,VALID,20.3241,VALID,235,VALID,0,
2003-10-03, 01:44:00,VALID,916.693,VALID,0,VALID,99.2335,VALID,-0.0849042,VALID,20.3474,VALID,235,VALID,0,
2003-10-03, 01:45:00,VALID,916.684,VALID,0,VALID,99.2678,VALID,-0.101885,VALID,20.3639,VALID,235,VALID,0,
2003-10-03, 01:46:00,VALID,916.681,VALID,0,VALID,99.2907,VALID,-0.0679233,VALID,20.3666,VALID,235,VALID,0,
2003-10-03, 01:47:00,VALID,916.67,VALID,0,VALID,99.3212,VALID,-0.0849042,VALID,20.376,VALID,235,VALID,0,
2003-10-03, 01:48:00,VALID,916.667,VALID,0,VALID,99.3161,VALID,-0.0169808,VALID,20.4008,VALID,234,VALID,0.121094,
2003-10-03, 01:49:00,VALID,916.669,VALID,0,VALID,99.1648,VALID,0,VALID,20.3973,VALID,72,VALID,0.52377,
2003-10-03, 01:50:00,VALID,916.665,VALID,0,VALID,99.0796,VALID,0.0169808,VALID,20.3745,VALID,87,VALID,0.591694,
2003-10-03, 01:51:00,VALID,916.658,VALID,0,VALID,99.0211,VALID,0,VALID,20.3519,VALID,115,VALID,0.550595,
2003-10-03, 01:52:00,VALID,916.674,VALID,0,VALID,99.0389,VALID,0.0169808,VALID,20.3355,VALID,119,VALID,0.573946,
2003-10-03, 01:53:00,VALID,916.664,VALID,0,VALID,99.0733,VALID,0,VALID,20.33,VALID,123,VALID,0.487233,
2003-10-03, 01:54:00,VALID,916.649,VALID,0,VALID,99.105,VALID,0.0169808,VALID,20.323,VALID,124,VALID,0.0912064,
2003-10-03, 01:55:00,VALID,916.63,VALID,0,VALID,99.1406,VALID,0.0339617,VALID,20.3128,VALID,124,VALID,0,
2003-10-03, 01:56:00,VALID,916.628,VALID,0,VALID,99.1368,VALID,0.0509425,VALID,20.3362,VALID,124,VALID,0,
2003-10-03, 01:57:00,VALID,916.596,VALID,0,VALID,99.1178,VALID,0.0509425,VALID,20.326,VALID,124,VALID,0,
2003-10-03, 01:58:00,VALID,916.593,VALID,0,VALID,99.1152,VALID,0,VALID,20.3392,VALID,124,VALID,0,
2003-10-03, 01:59:00,VALID,916.582,VALID,0,VALID,99.1139,VALID,0.0169808,VALID,20.3486,VALID,91,VALID,0.192472,
2003-10-03, 02:00:00,VALID,916.577,VALID,0,VALID,99.1267,VALID,0.0169808,VALID,20.3581,VALID,44,VALID,0.568714,
2003-10-03, 02:01:00,VALID,916.574,VALID,0,VALID,99.1305,VALID,0.0339617,VALID,20.3842,VALID,28,VALID,0.694247,
2003-10-03, 02:02:00,VALID,916.575,VALID,0,VALID,99.0516,VALID,0.0509425,VALID,20.3834,VALID,27,VALID,0.654576,
2003-10-03, 02:03:00,VALID,916.56,VALID,0,VALID,98.9703,VALID,0.0169808,VALID,20.403,VALID,27,VALID,0.502725,
2003-10-03, 02:04:00,VALID,916.545,VALID,0,VALID,98.8189,VALID,0,VALID,20.3971,VALID,27,VALID,0.519817,
2003-10-03, 02:05:00,VALID,916.55,VALID,0,VALID,98.7185,VALID,0.0169808,VALID,20.3938,VALID,33,VALID,0.448686,
2003-10-03, 02:06:00,VALID,916.541,VALID,0,VALID,98.5583,VALID,0,VALID,20.371,VALID,59,VALID,0.583079,
2003-10-03, 02:07:00,VALID,916.533,VALID,0,VALID,98.5188,VALID,0.0169808,VALID,20.3422,VALID,63,VALID,0.59654,
2003-10-03, 02:08:00,VALID,916.545,VALID,0,VALID,98.5481,VALID,0.0509425,VALID,20.3196,VALID,67,VALID,0.707122,
2003-10-03, 02:09:00,VALID,916.539,VALID,0,VALID,98.5735,VALID,0.0509425,VALID,20.3004,VALID,73,VALID,0.753516,
2003-10-03, 02:10:00,VALID,916.53,VALID,0,VALID,98.6104,VALID,0,VALID,20.2781,VALID,88,VALID,0.668605,
2003-10-03, 02:11:00,VALID,916.521,VALID,0,VALID,98.6854,VALID,0.0169808,VALID,20.2555,VALID,90,VALID,0.527249,
2003-10-03, 02:12:00,VALID,916.514,VALID,0,VALID,98.7401,VALID,0.0169808,VALID,20.2453,VALID,90,VALID,0.199314,
2003-10-03, 02:13:00,VALID,916.484,VALID,0,VALID,98.8189,VALID,0.0339617,VALID,20.2423,VALID,90,VALID,0.103981,
2003-10-03, 02:14:00,VALID,916.477,VALID,0,VALID,98.8711,VALID,0,VALID,20.2356,VALID,90,VALID,0.217262,
2003-10-03, 02:15:00,VALID,916.435,VALID,0,VALID,98.9054,VALID,0,VALID,20.2299,VALID,90,VALID,0.166788,
2003-10-03, 02:16:00,VALID,916.42,VALID,0,VALID,98.9397,VALID,0.0169808,VALID,20.2125,VALID,90,VALID,0.223214,
2003-10-03, 02:17:00,VALID,916.406,VALID,0,VALID,98.9779,VALID,0,VALID,20.2165,VALID,90,VALID,0.0352471,
2003-10-03, 02:18:00,VALID,916.394,VALID,0,VALID,99.0504,VALID,0.0339617,VALID,20.2264,VALID,90,VALID,0.206055,
2003-10-03, 02:19:00,VALID,916.388,VALID,0,VALID,99.0949,VALID,0,VALID,20.2197,VALID,78,VALID,0.623001,
2003-10-03, 02:20:00,VALID,916.386,VALID,0,VALID,99.1101,VALID,0,VALID,20.2165,VALID,78,VALID,0.580256,
2003-10-03, 02:21:00,VALID,916.376,VALID,0,VALID,99.1127,VALID,0.0509425,VALID,20.2103,VALID,85,VALID,0.644622,
2003-10-03, 02:22:00,VALID,916.369,VALID,0,VALID,99.1279,VALID,0.0339617,VALID,20.1774,VALID,90,VALID,0.595052,
2003-10-03, 02:23:00,VALID,916.347,VALID,0,VALID,99.1979,VALID,0,VALID,20.1712,VALID,104,VALID,0.698038,
2003-10-03, 02:24:00,VALID,916.338,VALID,0,VALID,99.2487,VALID,0,VALID,20.1688,VALID,116,VALID,0.956659,
2003-10-03, 02:25:00,VALID,916.325,VALID,0,VALID,99.2932,VALID,0,VALID,20.1524,VALID,118,VALID,0.81468,
2003-10-03, 02:26:00,VALID,916.311,VALID,0,VALID,99.3365,VALID,0,VALID,20.1355,VALID,127,VALID,0.918605,
2003-10-03, 02:27:00,VALID,916.314,VALID,0,VALID,99.353,VALID,0,VALID,20.1422,VALID,90,VALID,0.679167,
2003-10-03, 02:28:00,VALID,916.323,VALID,0,VALID,99.4051,VALID,0.0169808,VALID,20.1457,VALID,77,VALID,0.673177,
2003-10-03, 02:29:00,VALID,916.318,VALID,0,VALID,99.4039,VALID,0.0169808,VALID,20.1419,VALID,64,VALID,1.14732,
2003-10-03, 02:30:00,VALID,916.311,VALID,0,VALID,99.3886,VALID,0.0339617,VALID,20.1521,VALID,66,VALID,1.2706,
2003-10-03, 02:31:00,VALID,916.309,VALID,0,VALID,99.367,VALID,-0.0169808,VALID,20.1293,VALID,71,VALID,1.43331,
2003-10-03, 02:32:00,VALID,916.288,VALID,0,VALID,99.339,VALID,0,VALID,20.1327,VALID,74,VALID,1.50837,
2003-10-03, 02:33:00,VALID,916.274,VALID,0,VALID,99.3759,VALID,-0.0509425,VALID,20.1275,VALID,76,VALID,1.31059,
2003-10-03, 02:34:00,VALID,916.229,VALID,0,VALID,99.4039,VALID,-0.0849042,VALID,20.1216,VALID,70,VALID,1.34013,
2003-10-03, 02:35:00,VALID,916.206,VALID,0,VALID,99.4675,VALID,-0.101885,VALID,20.1154,VALID,74,VALID,1.27108,
2003-10-03, 02:36:00,VALID,916.177,VALID,0,VALID,99.5221,VALID,-0.0849042,VALID,20.1052,VALID,68,VALID,0.997954,
2003-10-03, 02:37:00,VALID,916.149,VALID,0,VALID,99.5679,VALID,-0.101885,VALID,20.102,VALID,113,VALID,0.984908,
2003-10-03, 02:38:00,VALID,916.145,VALID,0,VALID,99.6442,VALID,-0.0849042,VALID,20.1049,VALID,96,VALID,0.717076,
2003-10-03, 02:39:00,VALID,916.144,VALID,0,VALID,99.6874,VALID,-0.0849042,VALID,20.1044,VALID,67,VALID,0.734561,
2003-10-03, 02:40:00,VALID,916.143,VALID,0,VALID,99.6811,VALID,-0.101885,VALID,20.1054,VALID,70,VALID,1.58168,
2003-10-03, 02:41:00,VALID,916.13,VALID,0,VALID,99.6811,VALID,-0.0849042,VALID,20.0853,VALID,67,VALID,1.39271,
2003-10-03, 02:42:00,VALID,916.131,VALID,0,VALID,99.7014,VALID,-0.0849042,VALID,20.0858,VALID,67,VALID,1.13502,
2003-10-03, 02:43:00,VALID,916.134,VALID,0,VALID,99.7243,VALID,-0.0679233,VALID,20.0794,VALID,65,VALID,1.12064,
2003-10-03, 02:44:00,VALID,916.126,VALID,0,VALID,99.7396,VALID,-0.101885,VALID,20.0734,VALID,51,VALID,0.905134,
2003-10-03, 02:45:00,VALID,916.11,VALID,0,VALID,99.7548,VALID,-0.0849042,VALID,20.0605,VALID,64,VALID,1.35454,
2003-10-03, 02:46:00,VALID,916.11,VALID,0,VALID,99.7574,VALID,-0.0849042,VALID,20.0508,VALID,46,VALID,0.72247,
2003-10-03, 02:47:00,VALID,916.085,VALID,0,VALID,99.7841,VALID,-0.0849042,VALID,20.0369,VALID,25,VALID,0.434775,
2003-10-03, 02:48:00,VALID,916.09,VALID,0,VALID,99.8146,VALID,0,VALID,20.0431,VALID,35,VALID,0.103711,
2003-10-03, 02:49:00,VALID,916.071,VALID,0,VALID,99.8082,VALID,0,VALID,20.0391,VALID,58,VALID,0.396802,
2003-10-03, 02:50:00,VALID,916.073,VALID,0,VALID,99.8006,VALID,0,VALID,20.0229,VALID,98,VALID,0.555035,
2003-10-03, 02:51:00,VALID,916.05,VALID,0,VALID,99.7955,VALID,0.0169808,VALID,20.0262,VALID,111,VALID,1.07254,
2003-10-03, 02:52:00,VALID,916.033,VALID,0,VALID,99.8032,VALID,0,VALID,20.0234,VALID,116,VALID,0.886914,
2003-10-03, 02:53:00,VALID,916.009,VALID,0,VALID,99.8044,VALID,0.0339617,VALID,20.017,VALID,125,VALID,0.787997,
2003-10-03, 02:54:00,VALID,915.999,VALID,0,VALID,99.793,VALID,0.0169808,VALID,20.02,VALID,109,VALID,1.09868,
2003-10-03, 02:55:00,VALID,915.965,VALID,0,VALID,99.7917,VALID,0,VALID,20.007,VALID,111,VALID,1.04092,
2003-10-03, 02:56:00,VALID,915.942,VALID,0,VALID,99.7714,VALID,0.0169808,VALID,20.0172,VALID,103,VALID,0.853423,
2003-10-03, 02:57:00,VALID,915.924,VALID,0,VALID,99.7663,VALID,0,VALID,19.9976,VALID,105,VALID,0.770633,
2003-10-03, 02:58:00,VALID,915.906,VALID,0,VALID,99.7599,VALID,0,VALID,19.9872,VALID,93,VALID,0.710243,
2003-10-03, 02:59:00,VALID,915.915,VALID,0,VALID,99.7701,VALID,0.0509425,VALID,19.9973,VALID,107,VALID,0.397485,
2003-10-03, 03:00:00,VALID,915.902,VALID,0,VALID,99.7625,VALID,0.0169808,VALID,20.0043,VALID,141,VALID,1.08403,
2003-10-03, 03:01:00,VALID,915.899,VALID,0,VALID,99.7587,VALID,0,VALID,19.9906,VALID,135,VALID,1.02637,
2003-10-03, 03:02:00,VALID,915.893,VALID,0,VALID,99.7587,VALID,0.0169808,VALID,19.9978,VALID,140,VALID,1.03525,
2003-10-03, 03:03:00,VALID,915.885,VALID,0,VALID,99.7459,VALID,-0.0679233,VALID,19.9984,VALID,160,VALID,0.897266,
2003-10-03, 03:04:00,VALID,915.863,VALID,0,VALID,99.7447,VALID,-0.101885,VALID,19.9792,VALID,186,VALID,0.974382,
2003-10-03, 03:05:00,VALID,915.855,VALID,0,VALID,99.7447,VALID,-0.101885,VALID,19.9797,VALID,174,VALID,0.941229,
2003-10-03, 03:06:00,VALID,915.823,VALID,0,VALID,99.7345,VALID,-0.101885,VALID,19.9598,VALID,148,VALID,1.14915,
2003-10-03, 03:07:00,VALID,915.817,VALID,0,VALID,99.6722,VALID,-0.101885,VALID,19.9467,VALID,140,VALID,1.8403,
2003-10-03, 03:08:00,VALID,915.807,VALID,0,VALID,99.6607,VALID,-0.0679233,VALID,19.9601,VALID,135,VALID,1.13783,
2003-10-03, 03:09:00,VALID,915.804,VALID,0,VALID,99.6213,VALID,-0.0849042,VALID,19.9767,VALID,124,VALID,1.31541,
2003-10-03, 03:10:00,VALID,915.81,VALID,0,VALID,99.5387,VALID,-0.101885,VALID,19.9574,VALID,113,VALID,1.29045,
2003-10-03, 03:11:00,VALID,915.8,VALID,0,VALID,99.512,VALID,-0.0679233,VALID,19.9445,VALID,115,VALID,1.24792,
2003-10-03, 03:12:00,VALID,915.797,VALID,0,VALID,99.517,VALID,-0.0679233,VALID,19.9278,VALID,118,VALID,1.28086,
2003-10-03, 03:13:00,VALID,915.783,VALID,0,VALID,99.545,VALID,-0.0849042,VALID,19.9213,VALID,139,VALID,1.12216,
2003-10-03, 03:14:00,VALID,915.789,VALID,0,VALID,99.5959,VALID,-0.0339617,VALID,19.9146,VALID,141,VALID,1.48351,
2003-10-03, 03:15:00,VALID,915.77,VALID,0,VALID,99.5908,VALID,-0.0849042,VALID,19.8955,VALID,148,VALID,1.30137,
2003-10-03, 03:16:00,VALID,915.755,VALID,0,VALID,99.5717,VALID,-0.0849042,VALID,19.8925,VALID,154,VALID,1.1946,
2003-10-03, 03:17:00,VALID,915.743,VALID,0,VALID,99.5883,VALID,-0.0679233,VALID,19.8764,VALID,147,VALID,0.901228,
2003-10-03, 03:18:00,VALID,915.74,VALID,0,VALID,99.5933,VALID,-0.0339617,VALID,19.8719,VALID,157,VALID,1.0026,
2003-10-03, 03:19:00,VALID,915.722,VALID,0,VALID,99.5463,VALID,0,VALID,19.8622,VALID,153,VALID,1.08378,
2003-10-03, 03:20:00,VALID,915.722,VALID,0,VALID,99.5603,VALID,0,VALID,19.859,VALID,145,VALID,1.66406,
2003-10-03, 03:21:00,VALID,915.714,VALID,0,VALID,99.5527,VALID,0,VALID,19.8587,VALID,144,VALID,1.46532,
2003-10-03, 03:22:00,VALID,915.694,VALID,0,VALID,99.5654,VALID,0,VALID,19.8684,VALID,135,VALID,2.02172,
2003-10-03, 03:23:00,VALID,915.694,VALID,0,VALID,99.5132,VALID,0.0169808,VALID,19.8649,VALID,136,VALID,2.07431,
2003-10-03, 03:24:00,VALID,915.678,VALID,0,VALID,99.4624,VALID,0,VALID,19.8622,VALID,133,VALID,1.5,
2003-10-03, 03:25:00,VALID,915.669,VALID,0,VALID,99.353,VALID,0.0339617,VALID,19.859,VALID,130,VALID,1.92691,
2003-10-03, 03:26:00,VALID,915.65,VALID,0,VALID,99.2945,VALID,0,VALID,19.8525,VALID,132,VALID,2.14897,
2003-10-03, 03:27:00,VALID,915.646,VALID,0,VALID,99.1864,VALID,0.0169808,VALID,19.8488,VALID,134,VALID,1.62984,
2003-10-03, 03:28:00,VALID,915.643,VALID,0,VALID,99.0733,VALID,0,VALID,19.8523,VALID,128,VALID,1.82315,
2003-10-03, 03:29:00,VALID,915.646,VALID,0,VALID,98.9245,VALID,0,VALID,19.862,VALID,131,VALID,1.88887,
2003-10-03, 03:30:00,VALID,915.638,VALID,0,VALID,98.7808,VALID,0.0169808,VALID,19.8622,VALID,134,VALID,1.95176,
2003-10-03, 03:31:00,VALID,915.647,VALID,0,VALID,98.618,VALID,0,VALID,19.892,VALID,137,VALID,2.11839,
2003-10-03, 03:32:00,VALID,915.659,VALID,0,VALID,98.4438,VALID,0,VALID,19.895,VALID,123,VALID,1.34238,
2003-10-03, 03:33:00,VALID,915.665,VALID,0,VALID,98.2874,VALID,0.0339617,VALID,19.898,VALID,139,VALID,1.50836,
2003-10-03, 03:34:00,VALID,915.646,VALID,0,VALID,98.1793,VALID,0.0169808,VALID,19.9109,VALID,127,VALID,1.53982,
2003-10-03, 03:35:00,VALID,915.638,VALID,0,VALID,98.0674,VALID,0.0169808,VALID,19.9039,VALID,133,VALID,1.38903,